Other Surface Observations
Issued by NWS Charleston, SC

Home | Current Version | Previous Version | Text Only | Print | Product List | Glossary On
Versions: 1 2 3 4 5 6 7 8 9 10 11 12 13 14 15 16 17 18 19 20 21 22 23 24 25 26 27 28 29 30 31 32 33 34 35 36 37 38 39 40 41 42 43 44 45 46 47 48 49 50
000
SXUS52 KCHS 260125
OSOCHS

MARINE OBSERVATIONS
NATIONAL WEATHER SERVICE CHARLESTON SC
900 PM EDT SAT OCT 25 2014

...DOWNTOWN CHARLESTON AND HARBOR...

CITY           SKY/WX    TMP DP  RH WIND       PRES   REMARKS
WATERFRONT PRK   N/A     64 N/A N/A W3          N/A
FORT JOHNSON   NOT AVBL

...LAKE MOULTRIE...

CITY           SKY/WX    TMP DP  RH WIND       PRES   REMARKS
PINOPOLIS      NOT AVBL

...LAKE AND SUPPLEMENTAL COASTAL OBSERVATIONS...

STATION/POSITION TIME  TEMP    WIND        PRES    WAVE   SWELL
                       AIR SEA DIR/SP/G            HT/PER HT/PER/DIR
                 (UTC) (F)     (DEG/KT/KT) (MB)    (FT/S) (FT/S/D)
FORT PULASKI     0100   65     180/  3/  3 1015.7R
SAPELO ISLAND    NOT AVBL
UPR LAKE MARION  NOT AVBL
WINYAH BAY       0100   60        CALM     1014.0S
LAKE MURRAY      0000   65     290/  3/  4 1014.2S
ACE BASIN NERRS  0100   56        CALM     1015.0S


...C-MAN AND BUOY OBSERVATIONS...

STATION/POSITION TIME  TEMP    WIND        PRES    WAVE   SWELL
                       AIR SEA DIR/SP/G            HT/PER HT/PER/DIR
                 (UTC) (F)     (DEG/KT/KT) (MB)    (FT/S) (FT/S/D)
BUOY 41004       0100   71 77  290/ 10/ 12 1014.6R   2/10   2/10
BUOY 41008       0100   71 75   20/  4/  6 1015.6R   1/ 9   2/100/ 9
FOLLY BEACH CMAN 0100   64     250/  4/  4 1015.4R
CAPERS NS BUOY   NOT AVBL
FRIPP NS BUOY    NOT AVBL
5E ST. MARYS GA  0100      75                N/A     2/ 9
FRYING PAN BUOY  0100   70 74  260/ 10/ 14 1014.9R   2/10   2/ 80/10
BUOY 41025       0100   67     250/ 14/ 17 1012.1F   3/ 9   2/ 70/ 9
CAPE LOOKOUT NC  0100   67     250/  9/ 10 1012.5F
BUOY 41002       NOT AVBL
BUOY 41010       0100   76 82  360/ 12/ 16 1013.8R   4/ 5   2/100/ 7
BUOY 41012       NOT AVBL
ST AUGUSTINE FL  0100   71      10/  7/  8 1016.6R


$$



USA.gov is the U.S. government's official web portal to all federal, state and local government web resources and services.